Weather History for Louisburg, NC

Change the Weather History Date:

Wednesday, January 30, 2013

  Actual Average (KRDU) Record (KRDU)
Temperature  
Mean Temperature 66 °F 42 °F  
Max Temperature 71 °F 52 °F 80 °F (2002)
Min Temperature 60 °F 32 °F 7 °F (1977)
Degree Days  
Heating Degree Days 0 23  
Month to date heating degree days 721  
Since 1 July heating degree days 1972  
Cooling Degree Days 0 0  
Month to date cooling degree days 0  
Year to date cooling degree days 0  
Growing Degree Days 16 (Base 50)    
Moisture  
Dew Point 63 °F    
Average Humidity 81    
Maximum Humidity 100    
Minimum Humidity 69    
Precipitation  
Precipitation 0.01 in 0.11 in 1.09 in (2000)
Month to date precipitation 3.38  
Year to date precipitation 3.38  
Snow  
Snow 0.00 in 0.10 in 3.80 in (1965)
Month to date snowfall 2.8  
Since 1 July snowfall 3.5  
Snow Depth -    
Sea Level Pressure  
Sea Level Pressure 29.81 in    
Wind  
Wind Speed 13 mph (South)    
Max Wind Speed 28 mph    
Max Gust Speed 45 mph    
Visibility 10 miles    
Events Rain    
T = Trace of Precipitation, MM = Missing Value Source: NWS Daily Summary

Daily Weather History Graph

Daily Weather History Graph

Search for Another Location

Airport:

Trip Planner

Search our weather history database for the weather conditions in past years. The results will help you decide how hot, cold, wet, or windy it might be!

Date:

Astronomy

Jan. 30, 2013 Rise Set
Actual Time 7:15 AM EST 5:38 PM EST
Civil Twilight 6:48 AM EST 6:05 PM EST
Nautical Twilight 6:17 AM EST 6:36 PM EST
Astronomical Twilight 5:47 AM EST 7:06 PM EST
Moon 9:25 PM EST (1/30) 8:50 AM EST (1/30)
Length of Visible Light 11h 17m
Length of Day
10h 23m
Waning Gibbous, 88% of the Moon is Illuminated
Jan 30
Waning Gibbous
Feb 3
Last Quarter
Feb 10
New
Feb 17
First Quarter
Feb 25
Full

Hourly Weather History & Observations

Time (EST) Temp. Dew Point Humidity Pressure Visibility Wind Dir Wind Speed Gust Speed Precip Events Conditions
12:15 AM 60.8 °F 60.8 °F 100% 30.08 in 10.0 mi South 6.9 mph - N/A   Clear
12:35 AM 60.8 °F 60.8 °F 100% 30.08 in 10.0 mi South 6.9 mph - N/A   Clear
12:55 AM - - N/A% 30.07 in 7.0 mi South 6.9 mph - N/A   Clear
1:35 AM - - N/A% 30.06 in 7.0 mi South 8.1 mph - N/A   Clear
1:55 AM - - N/A% 30.05 in 7.0 mi South 6.9 mph - N/A   Scattered Clouds
2:15 AM - - N/A% 30.05 in 7.0 mi South 8.1 mph - N/A   Mostly Cloudy
2:35 AM - - N/A% 30.05 in 7.0 mi South 9.2 mph - N/A   Overcast
2:55 AM - - N/A% 30.03 in 7.0 mi South 10.4 mph - N/A   Scattered Clouds
3:15 AM - - N/A% 30.03 in 10.0 mi SSW 9.2 mph - N/A   Scattered Clouds
3:35 AM - - N/A% 30.02 in 10.0 mi SSW 10.4 mph 16.1 mph N/A   Scattered Clouds
3:55 AM - - N/A% 30.01 in 10.0 mi South 11.5 mph - N/A   Mostly Cloudy
4:15 AM - - N/A% 30.01 in 10.0 mi SSW 10.4 mph 16.1 mph N/A   Overcast
4:35 AM - - N/A% 30.00 in 10.0 mi South 11.5 mph 17.3 mph N/A   Overcast
4:55 AM - - N/A% 30.00 in 10.0 mi South 11.5 mph 18.4 mph N/A   Overcast
5:15 AM - - N/A% 30.00 in 10.0 mi South 8.1 mph 20.7 mph N/A   Overcast
5:35 AM - - N/A% 30.00 in 10.0 mi SSW 12.7 mph 23.0 mph N/A   Overcast
5:55 AM - - N/A% 29.99 in 10.0 mi SSW 13.8 mph 20.7 mph N/A   Overcast
6:15 AM - - N/A% 29.98 in 10.0 mi South 9.2 mph - N/A   Overcast
6:55 AM - - N/A% 29.97 in 10.0 mi SSW 12.7 mph 19.6 mph N/A   Overcast
7:15 AM - - N/A% 29.97 in 10.0 mi South 12.7 mph 21.9 mph N/A   Overcast
7:35 AM - - N/A% 29.97 in 10.0 mi South 13.8 mph 24.2 mph N/A   Overcast
7:55 AM - - N/A% 29.96 in 10.0 mi South 18.4 mph 23.0 mph N/A   Overcast
8:15 AM - - N/A% 29.96 in 10.0 mi South 12.7 mph 21.9 mph N/A   Overcast
8:35 AM - - N/A% 29.96 in 10.0 mi South 12.7 mph 20.7 mph N/A   Overcast
8:55 AM - - N/A% 29.94 in 10.0 mi South 16.1 mph 26.5 mph N/A   Overcast
9:15 AM - - N/A% 29.93 in 10.0 mi South 16.1 mph 23.0 mph N/A   Overcast
9:35 AM - - N/A% 29.93 in 10.0 mi South 16.1 mph 28.8 mph N/A   Overcast
9:55 AM - - N/A% 29.92 in 10.0 mi South 17.3 mph 23.0 mph N/A   Overcast
10:15 AM - - N/A% 29.92 in 10.0 mi South 15.0 mph 28.8 mph N/A   Overcast
10:35 AM - - N/A% 29.92 in 10.0 mi South 19.6 mph 28.8 mph N/A   Overcast
10:55 AM - - N/A% 29.91 in 10.0 mi South 18.4 mph 25.3 mph N/A   Overcast
11:15 AM - - N/A% 29.90 in 10.0 mi South 16.1 mph 23.0 mph N/A   Overcast
11:35 AM - - N/A% 29.90 in 10.0 mi South 18.4 mph 27.6 mph N/A   Overcast
11:55 AM 69.8 °F 69.8 °F 100% 29.88 in 10.0 mi South 13.8 mph 28.8 mph N/A   Overcast
12:15 PM 69.8 °F 69.8 °F 100% 29.86 in 10.0 mi South 13.8 mph 25.3 mph N/A   Overcast
12:35 PM 69.8 °F 69.8 °F 100% 29.84 in 10.0 mi South 17.3 mph 28.8 mph N/A   Overcast
12:55 PM 69.8 °F 69.8 °F 100% 29.82 in 10.0 mi South 13.8 mph 28.8 mph N/A   Overcast
1:15 PM - - N/A% 29.81 in 7.0 mi South 13.8 mph 24.2 mph N/A   Overcast
1:35 PM - - N/A% 29.80 in 10.0 mi South 18.4 mph 25.3 mph N/A   Overcast
1:55 PM - - N/A% 29.79 in 7.0 mi South 15.0 mph 23.0 mph N/A   Overcast
2:15 PM - - N/A% 29.78 in 10.0 mi South 17.3 mph 24.2 mph N/A   Overcast
2:35 PM - - N/A% 29.77 in 10.0 mi South 13.8 mph 27.6 mph N/A   Overcast
2:55 PM - - N/A% 29.75 in 10.0 mi South 16.1 mph 21.9 mph N/A   Overcast
3:15 PM 69.8 °F 69.8 °F 100% 29.72 in 10.0 mi South 17.3 mph 25.3 mph N/A   Overcast
3:35 PM 71.6 °F 62.6 °F 73% 29.72 in 10.0 mi South 18.4 mph 28.8 mph N/A   Overcast
3:55 PM 71.6 °F 62.6 °F 73% 29.71 in 10.0 mi South 19.6 mph 31.1 mph N/A   Overcast
4:15 PM 71.6 °F 60.8 °F 69% 29.70 in 10.0 mi South 21.9 mph 34.5 mph N/A   Overcast
4:35 PM 71.6 °F 60.8 °F 69% 29.69 in 10.0 mi South 18.4 mph 36.8 mph N/A   Overcast
4:55 PM 71.6 °F 60.8 °F 69% 29.69 in 10.0 mi South 25.3 mph 36.8 mph N/A   Overcast
5:15 PM 69.8 °F 60.8 °F 73% 29.69 in 10.0 mi South 15.0 mph 27.6 mph N/A   Overcast
5:35 PM 69.8 °F 62.6 °F 78% 29.68 in 10.0 mi South 17.3 mph 25.3 mph N/A   Overcast
5:55 PM 69.8 °F 62.6 °F 78% 29.67 in 10.0 mi South 19.6 mph 27.6 mph N/A   Overcast
6:15 PM 69.8 °F 60.8 °F 73% 29.65 in 10.0 mi South 18.4 mph 29.9 mph N/A   Overcast
6:35 PM 69.8 °F 60.8 °F 73% 29.64 in 10.0 mi South 25.3 mph 31.1 mph N/A   Overcast
6:55 PM 69.8 °F 60.8 °F 73% 29.62 in 10.0 mi South 20.7 mph 36.8 mph N/A   Overcast
7:15 PM 69.8 °F 60.8 °F 73% 29.61 in 10.0 mi South 20.7 mph 33.4 mph N/A   Mostly Cloudy
7:35 PM 69.8 °F 60.8 °F 73% 29.60 in 10.0 mi South 27.6 mph 38.0 mph N/A   Overcast
7:55 PM 69.8 °F 60.8 °F 73% 29.58 in 10.0 mi South 18.4 mph 35.7 mph N/A   Mostly Cloudy
8:15 PM 69.8 °F 60.8 °F 73% 29.57 in 10.0 mi South 25.3 mph 34.5 mph N/A   Overcast
8:35 PM 69.8 °F 60.8 °F 73% 29.55 in 10.0 mi South 23.0 mph 36.8 mph N/A   Overcast
8:55 PM 69.8 °F 60.8 °F 73% 29.54 in 10.0 mi South 27.6 mph 39.1 mph N/A   Overcast
9:15 PM 69.8 °F 62.6 °F 78% 29.54 in 10.0 mi South 21.9 mph 44.9 mph N/A   Overcast
9:35 PM 69.8 °F 62.6 °F 78% 29.52 in 10.0 mi South 24.2 mph 35.7 mph N/A   Overcast
9:55 PM 69.8 °F 62.6 °F 78% 29.51 in 10.0 mi South 20.7 mph 36.8 mph N/A   Overcast
10:15 PM 69.8 °F 62.6 °F 78% 29.50 in 10.0 mi South 23.0 mph 32.2 mph N/A   Overcast
10:35 PM 69.8 °F 62.6 °F 78% 29.48 in 10.0 mi South 24.2 mph 35.7 mph N/A   Overcast
10:55 PM 69.8 °F 64.4 °F 83% 29.46 in 10.0 mi South 20.7 mph 35.7 mph N/A Rain Light Rain
11:15 PM 68.0 °F 68.0 °F 100% 29.45 in 7.0 mi South 16.1 mph 35.7 mph N/A Rain Light Rain
11:35 PM - - N/A% 29.43 in 7.0 mi South 19.6 mph 33.4 mph 0.01 in   Light Drizzle
11:55 PM - - N/A% 29.40 in 7.0 mi South 21.9 mph 34.5 mph 0.01 in   Light Drizzle